Location: Goll?ig?dem
(16.6773°N, 80.7332°E)
Time: 20:07:03
(UTC+00:00)

CZ-4B R/B - Pass Details

Date: 19 May 2025
Orbit: 807 x 881 km, 98.9° (Epoch: 21 June)

Event Time Altitude Azimuth Distance (km) Brightness Sun altitude
Exits shadow 14:14:49 21° 87° (E) 1,817 4.4 -16.7°
Maximum altitude 14:15:46 22° 73° (ENE) 1,770 4.5 -16.9°
Drops below altitude 10° 14:19:55 10° 23° (NNE) 2,476 5.7 -17.8°
Sets 14:22:45 0° 9° (N) 3,400 6.6 -18.4°
